Weather History for Richmond Hanover County, VA

Change the Weather History Date:

Sunday, November 3, 2013

  Actual Average Record
Temperature  
Mean Temperature 48 °F -  
Max Temperature 60 °F 67 °F 83 °F (1950)
Min Temperature 35 °F 43 °F 19 °F (1959)
Degree Days  
Heating Degree Days 16    
Moisture  
Dew Point 34 °F    
Average Humidity 66    
Maximum Humidity 97    
Minimum Humidity 27    
Precipitation  
Precipitation 0.00 in - - ()
Sea Level Pressure  
Sea Level Pressure 30.18 in    
Wind  
Wind Speed 2 mph (NNW)    
Max Wind Speed 10 mph    
Max Gust Speed 20 mph    
Visibility 9 miles    
Events      
Averages and records for this station are not official NWS values.
T = Trace of Precipitation, MM = Missing Value Source: NWS Daily Summary

Daily Weather History Graph

Daily Weather History Graph

Search for Another Location

Airport:

Trip Planner

Search our weather history database for the weather conditions in past years. The results will help you decide how hot, cold, wet, or windy it might be!

Date:

Astronomy

Nov. 03, 2013 Rise Set
Actual Time 6:37 AM EST 5:08 PM EST
Civil Twilight 6:09 AM EST 5:36 PM EST
Nautical Twilight 5:38 AM EST 6:07 PM EST
Astronomical Twilight 5:08 AM EST 6:37 PM EST
Moon 6:38 AM EST (11/3) 5:22 PM EST (11/3)
Length of Visible Light 11h 26m
Length of Day
10h 31m
New Moon, 0% of the Moon is Illuminated
Nov 3
New Moon
Nov 10
First Quarter
Nov 17
Full
Nov 25
Last Quarter
Dec 2
New

Hourly Weather History & Observations

Time (EST) Temp. Windchill Dew Point Humidity Pressure Visibility Wind Dir Wind Speed Gust Speed Precip Events Conditions
12:54 AM 46.0 °F - 41.0 °F 83% 29.94 in 10.0 mi Calm Calm - N/A   Clear
1:54 AM 43.0 °F - 39.9 °F 89% 29.96 in 9.0 mi Calm Calm - N/A   Clear
1:54 AM 43.0 °F - 41.0 °F 93% 29.97 in 9.0 mi Calm Calm - N/A   Clear
2:54 AM 41.0 °F - 39.0 °F 93% 29.98 in 8.0 mi Calm Calm - N/A   Clear
3:54 AM 39.9 °F - 39.0 °F 97% 29.99 in 7.0 mi Calm Calm - N/A   Clear
4:54 AM 37.9 °F - 37.0 °F 97% 30.03 in 7.0 mi Calm Calm - N/A   Clear
5:54 AM 37.9 °F - 37.0 °F 97% 30.06 in 8.0 mi Calm Calm - N/A   Clear
6:54 AM 37.9 °F - 37.0 °F 97% 30.09 in 6.0 mi Calm Calm - N/A   Clear
7:54 AM 46.0 °F 43.9 °F 39.0 °F 76% 30.13 in 10.0 mi NW 4.6 mph - N/A   Clear
8:54 AM 53.1 °F - 39.0 °F 59% 30.16 in 10.0 mi NW 8.1 mph - N/A   Clear
9:54 AM 55.0 °F - 37.9 °F 53% 30.18 in 10.0 mi NNW 8.1 mph 16.1 mph N/A   Clear
10:54 AM 55.9 °F - 37.0 °F 49% 30.21 in 10.0 mi NNW 9.2 mph 18.4 mph N/A   Mostly Cloudy
11:54 AM 59.0 °F - 34.0 °F 39% 30.20 in 10.0 mi NNW 10.4 mph 18.4 mph N/A   Clear
12:54 PM 60.1 °F - 32.0 °F 35% 30.20 in 10.0 mi North 8.1 mph 17.3 mph N/A   Clear
1:54 PM 59.0 °F - 26.1 °F 28% 30.22 in 10.0 mi Variable 6.9 mph 19.6 mph N/A   Clear
2:54 PM 59.0 °F - 25.0 °F 27% 30.23 in 10.0 mi NW 8.1 mph - N/A   Clear
3:54 PM 57.9 °F - 25.0 °F 28% 30.25 in 10.0 mi Variable 5.8 mph - N/A   Clear
4:54 PM 54.0 °F - 24.1 °F 31% 30.27 in 10.0 mi North 4.6 mph - N/A   Clear
5:54 PM 46.9 °F - 30.0 °F 52% 30.30 in 10.0 mi Calm Calm - N/A   Clear
6:54 PM 43.0 °F - 33.1 °F 68% 30.33 in 10.0 mi Calm Calm - N/A   Clear
7:54 PM 41.0 °F - 32.0 °F 70% 30.35 in 10.0 mi Calm Calm - N/A   Clear
8:54 PM 39.0 °F - 30.9 °F 73% 30.38 in 10.0 mi Calm Calm - N/A   Clear
9:54 PM 37.0 °F - 30.9 °F 79% 30.41 in 10.0 mi Calm Calm - N/A   Clear
10:54 PM 35.1 °F - 30.0 °F 82% 30.42 in 10.0 mi Calm Calm - N/A   Clear